sat.trackr.live / text

‹ back to catalog

STARLINK-36607

NORAD 67620 · 2026-020D

PAYLOAD ACTIVE UNKNOWN

§ Identity

Operator
Country
US
Launch date
2026-01-30
Launch site
AFETR
Launch vehicle
Mass (kg)
RCS (m²)

Purposes: comms

External: N2YO · Heavens-Above · Gunter

§ Orbital elements

Epoch: 2026-05-25T03:59:05.148384Z

Period
94.27 min
Inclination
43.0024°
Eccentricity
0.0001226
Mean motion
15.27590446 rev/d
Perigee alt
482.2 km
Apogee alt
483.9 km
Semi-major
6,861.2 km
B*
5.6412e-4
RAAN
67.5254°
Arg perigee
259.9105°
Mean anomaly
100.1608°
Rev number
1,781

§ Raw data

STARLINK-366071 67620U 26020D   26145.16603181  .00015298  00000+0  56412-3 0  99902 67620  43.0024  67.5254 0001226 259.9105 100.1608 15.27590446 17813

JSON: /api/v1/satellites/67620 · /tle

For live sub-satellite position, see the globe view (requires WebGL).

§ Visibility from observer

Set your observer location to see the next 7 days of passes ≥ 10°. The values pass through the URL so the page stays shareable.

No JS? Fill the form by hand. The geolocation button needs JavaScript.